Regional Weather Roundup
Issued by NWS Kansas City/Pleasant Hill, MO

Home | Current Version | Previous Version | Graphics & Text | Print | Product List | Glossary Off
Versions: 1 2 3 4 5 6 7 8 9 10 11 12 13 14 15 16 17 18 19 20 21 22 23 24 25 26 27 28 29 30 31 32 33 34 35 36 37 38 39 40 41 42 43 44 45 46 47 48 49 50

000
ASUS43 KEAX 210804
RWREAX

WEATHER ROUNDUP FOR EASTERN KANSAS AND NORTHWEST MISSOURI
NATIONAL WEATHER SERVICE KANSAS CITY/PLEASANT HILL MO
300 AM CDT TUE OCT 21 2014

KSZ040-057-103>105-MOZ028-029-037-043-210900-
...KANSAS CITY METROPOLITAN AREA...

CITY           SKY/WX    TMP DP  RH WIND       PRES   REMARKS
K.C. INTL      CLEAR     55  40  56 SW3       30.08R
K.C. DOWNTOWN  CLEAR     49  46  90 CALM      30.08S
LEES SUMMIT    CLEAR     46  42  86 SW3       30.08S
OLATHE - IXD   FAIR      47  44  90 CALM      30.09S
OLATHE - OJC   FAIR      48  44  86 CALM      30.08S
LAWRENCE       CLEAR     39  37  92 NW3       30.09S

$$

MOZ001>008-011>017-020>025-030>033-038>040-044>046-053-054-210900-
...NORTHERN AND CENTRAL MISSOURI...

CITY           SKY/WX    TMP DP  RH WIND       PRES   REMARKS
ST. JOSEPH     CLEAR     39  37  92 CALM      30.10R
MOSBY          SUNNY     41  41 100 CALM      30.08R
WHITEMAN AFB   CLEAR     44  42  91 S1        30.07F
CLINTON        CLEAR     45  45 100 CALM      30.09S
SEDALIA        CLEAR     49  42  77 SW3       30.09R
WARSAW         NOT AVBL
MARSHALL       CLEAR     48  45  87 SW5       30.09S
CHILLICOTHE      N/A     43  41  93 CALM      30.09R
MOBERLY        CLEAR     48  41  76 W5        30.07S
KIRKSVILLE     CLEAR     41  41 100 NW3       30.07S

$$

MOZ041-047>049-056>058-063>065-088>090-097-210900-
...EASTERN AND SOUTHERN MISSOURI...

CITY           SKY/WX    TMP DP  RH WIND       PRES   REMARKS
ST. LOUIS INTL CLEAR     50  44  80 W5        30.04R
SPIRIT OF STL  CLEAR     44  42  93 CALM      30.04R
COLUMBIA       CLEAR     52  43  71 NW5       30.07S
JEFFERSON CITY CLEAR     44  42  93 CALM      30.07S
MEXICO         CLEAR     48  45  87 W5        30.06R
ROLLA          CLEAR     46  41  82 SW5       30.06S
LEBANON        CLEAR     48  46  93 SW3       30.10R
OSAGE BEACH    CLEAR     45  41  87 CALM      30.08S
SPRINGFIELD    CLEAR     48  45  89 CALM      30.09S
BRANSON        PTCLDY    55  54  94 CALM      30.10S FOG
NEVADA         CLEAR     46  45  93 S3        30.10S
JOPLIN         CLEAR     52  52 100 SE3       30.09S FOG
WEST PLAINS    CLEAR     48  44  86 CALM      30.09S

$$

IAZ060-094-KSZ022-034>040-054-083-096-NEZ052-066-093-210900-
...KANSAS...SOUTHEAST NEBRASKA AND IOWA...

CITY           SKY/WX    TMP DP  RH WIND       PRES   REMARKS
TOPEKA         PTCLDY    44  43  96 CALM      30.10R
MANHATTAN      CLEAR     41  40  96 CALM      30.09R
EMPORIA        CLEAR     50  45  83 CALM      30.09R
CHANUTE        CLEAR     48  47  96 CALM      30.09R
WICHITA        CLEAR     52  46  80 CALM      30.07S
OMAHA          CLEAR     45  41  86 CALM      30.09R
LINCOLN        CLEAR     39  35  86 CALM      30.10R
FALLS CITY     CLEAR     40  38  93 NW3       30.09R
LAMONI         CLEAR     48  40  73 NW3       30.08R
DES MOINES     CLEAR     46  40  79 CALM      30.08R

$$




USA.gov is the U.S. government's official web portal to all federal, state and local government web resources and services.